STARLINK-3051, 49157

Orbit data source: Space-Track

STARLINK-3051, 49157 is a payload satellite owned by SpaceX/Seattle (US) in LEO that was launched on Tue, 14 Sep 2021 UTC via an FALCON 9 launch vehicle from the Air Force Western Test Range (AFWTR). Payload-class satellites include a variety of spacecraft equipped with specific instruments for various scientific and technological missions. These include communications satellites like Starlink; space stations such as the ISS; scientific satellites like the Hubble; Earth observation satellites from companies like Planet Labs, Umbra, and HawkEye 360; GPS; miniature CubeSats for education and research; and military/defense satellites.

Loading next visibility...
Identifier
49157, 2021-082AD
Orbit
LEO
Country
Flag of USUS
Related business
Manufacturer
SpaceX/Seattle
Mission
Operational Commercial Communications
Bus & Motor
STARLINK, Unknown motor
Mass
297 kg wet, ~275 kg dry
Launch date (UTC)
2021-09-14 (5 years ago)
Launch vehicle
FALCON 9
Launch site
Air Force Western Test Range (AFWTR)
Object type
Payload
Rocket body
Debris
Shape & HBR
Box + 1 Pan, 10.1 m
Radar Cross Section
13.562 m², Large (>1 m²)

Expand to show TLE details & history
Last TLE update: 15 hours ago

TLE from 15 hours ago
0 STARLINK-3051
1 49157U 21082AD  26125.44061308  .00008290  00000-0  58697-3 0  9998
2 49157  69.9969 127.2118 0004774 223.4751 136.6035 15.05143200256170
Epoch: 2026-05-05T10:34Z
TLE epoch observation values (Epoch: 2026-05-05T10:34:28.970Z)
Latitude
-0.00007°
Longitude
105.27565°
Altitude
555.902 km
Speed
7.583 km/s
True Right ascension
08h 28m 50s
True Declination
0° 00' 00"
Sunlit
Object was in daylight at epoch
Visualization orbit readout
Latitude
Unknown
Longitude
Unknown
Altitude
Unknown
Speed
Unknown
Apparent Right ascension
Unknown
Apparent Declination
Unknown
Sunlit
N/A
Visualization observer readout
Local Sidereal Time
09:05:19
Azimuth
Unknown
Elevation
Unknown
Doppler factor
Unknown
Orbital elements
Apogee altitude
552.315 km
Perigee altitude
545.701 km
Semi-major axis
6,927.145 km
Eccentricity
0.00048
Inclination
69.9969°
RAAN
127.2118°
Arg. of periapsis
223.4751°
True anomaly
136.64107°
Mean anomaly
136.6035°
Eccentric anomaly
136.62229°
Mean motion
3.76454 °/min
Orbital period
95.63 mins
BSTAR
0.00058697
Loading maneuver chart data...
Computing Atmospheric mass density...
Loading historical data...
Loading historical data...
Loading historical data...
Loading historical data...
Loading historical data...
Loading historical data...
Loading historical data...

Documentation

Showing up to 5 results
|